Regional Weather Roundup
Issued by NWS

Home | Current Version | Previous Version | Text Only | Print | Product List | Glossary On
Versions: 1 2 3 4 5 6 7 8 9 10 11 12 13 14 15 16 17 18 19 20 21 22 23 24 25 26 27 28 29 30 31 32 33 34 35 36 37 38 39 40 41 42 43 44 45 46 47 48 49 50
000
ASUS43 KMKX 301611
RWRWI

WISCONSIN REGIONAL WEATHER ROUNDUP
NATIONAL WEATHER SERVICE MILWAUKEE/SULLIVAN WI
1100 AM CDT THU JUL 30 2015

NOTE: "FAIR" INDICATES FEW OR NO CLOUDS BELOW 12,000 FEET WITH NO
SIGNIFICANT WEATHER AND/OR OBSTRUCTIONS TO VISIBILITY.

WIZ001-002-006>008-014>016-023>028-301700-
NORTHWEST WISCONSIN

CITY           SKY/WX    TMP DP  RH WIND       PRES   REMARKS
SUPERIOR ARPT  SUNNY     77  59  53 W9        29.95S
ASHLAND        SUNNY     77  58  51 W9G23     29.94F
HAYWARD        SUNNY     77  55  46 VRB7      29.99S
SIREN          SUNNY     76  58  53 W10G22    30.01R
CUMBERLAND     SUNNY     73  55  53 W14       30.01S
RICE LAKE      SUNNY     75  60  59 W9        30.02S
CHETEK         SUNNY     76  61  59 W10       30.01S
LADYSMITH      SUNNY     76  60  57 W9        30.01F
EAU CLAIRE     SUNNY     78  58  49 W10       30.00F
MENOMONIE      SUNNY     79  57  46 W12       30.02S HX  80
NEW RICHMOND   SUNNY     77  57  50 NW12      30.03S
OSCEOLA        SUNNY     76  60  57 W9G16     30.05S
$$

WIZ003>005-009-010-017-018-301700-
NORTH CENTRAL WISCONSIN

CITY           SKY/WX    TMP DP  RH WIND       PRES   REMARKS
MANITOWISH WTR MOSUNNY   74  55  50 NW10G24   29.96R
ARBOR VITAE    SUNNY     77  58  51 NW10G21   29.96S
WOODRUFF       SUNNY     77  58  51 NW10G21   29.96S
RHINELANDER    MOSUNNY   77  54  44 W16G24    29.97S
EAGLE RIVER    PTSUNNY   75  49  39 NW18G31   29.95R
LAND O LAKES   SUNNY     75  51  42 NW13G24   29.94S
PHILLIPS       SUNNY     74  56  54 W9G20     29.98S
TOMAHAWK       SUNNY     75  55  49 W10       29.98S
MEDFORD        SUNNY     74  60  62 W8        30.01S
MERRILL        NOT AVBL
$$

WIZ029-030-035-036-043>047-301700-
CENTRAL WISCONSIN

CITY           SKY/WX    TMP DP  RH WIND       PRES   REMARKS
WAUSAU         SUNNY     79  57  46 W14G21    29.98S HX  80
MOSINEE        SUNNY     77  57  50 W17G29    30.00F
MARSHFIELD     SUNNY     78  58  49 W12       30.02S
STEVENS POINT  SUNNY     75  58  54 W14       30.01S
WAUPACA        SUNNY     82  57  42 W13G20    29.99S HX  81
WAUTOMA        SUNNY     83  55  37 W14G20    30.01S HX  82
WISC RAPIDS    SUNNY     79  56  45 W12       30.03R HX  80
CAMP DOUGLAS   SUNNY     81  63  54 W14G20    30.03S HX  82
$$

WIZ011>013-019>022-031-037>040-048>050-301700-
NORTHEAST WISCONSIN

CITY           SKY/WX    TMP DP  RH WIND       PRES   REMARKS
ANTIGO         SUNNY     75  56  50 W10G28    29.98S
SHAWANO        SUNNY     81  57  44 W12G18    29.96S HX  81
OCONTO         SUNNY     80  56  43 W13G28    29.92S HX  80
STURGEON BAY   SUNNY     77  55  47 W14G23    29.94S
GREEN BAY      SUNNY     79  60  52 W17G25    29.96S HX  80
MANITOWOC      SUNNY     80  58  46 MISG      29.97S HX  80
APPLETON       SUNNY     77  55  47 W14G20    29.99S
CLINTONVILLE   SUNNY     79  55  44 W12       29.97S
OSHKOSH        SUNNY     79  59  50 W10       29.99S HX  80
$$

WIZ032>034-041-042-053>061-301700-
SOUTHWEST WISCONSIN

CITY           SKY/WX    TMP DP  RH WIND       PRES   REMARKS
LA CROSSE      SUNNY     82  57  42 W10       30.04S HX  82
SPARTA         SUNNY     80  53  39 W7G17     30.05S HX  80
VIROQUA        SUNNY     77  56  48 W9        30.08S
BOSCOBEL       SUNNY     84  59  42 W13G21    30.07S HX  84
PRAIRIE DU CHI SUNNY     82  53  35 W9        30.07S HX  81
PLATTEVILLE    SUNNY     79  62  55 W9        30.10S HX  80
$$

WIZ056-057-062-063-064-067-068-301700-
SOUTH CENTRAL WISCONSIN

CITY           SKY/WX    TMP DP  RH WIND       PRES   REMARKS
REEDSBURG      SUNNY     81  56  42 W15G21    30.05S HX  81
BARABOO/DELLS  SUNNY     81  52  35 W10G21    30.05S HX  80
LONE ROCK      SUNNY     81  57  43 W13       30.07R HX  81
MINERAL POINT  SUNNY     81  55  41 W12       30.09S HX  80
MADISON        SUNNY     80  58  46 W9G18     30.05R HX  80
MIDDLETON      SUNNY     82  54  38 W15       30.07R HX  81
WATERTOWN      SUNNY     79  60  52 W10       30.04S HX  80
MONROE         SUNNY     79  55  44 W14       30.09R
JANESVILLE     SUNNY     82  55  39 W14       30.06S HX  82
$$

WIZ051-052-058>065-066-070>072-301700-
SOUTHEAST WISCONSIN

CITY           SKY/WX    TMP DP  RH WIND       PRES   REMARKS
MILWAUKEE      SUNNY     83  53  35 NW15G24   30.02S HX  82
WAUKESHA       SUNNY     79  55  44 W14G21    30.05R
MILWAUKEE/TIMM SUNNY     81  54  39 W15G22    30.03S HX  80
RACINE         SUNNY     82  55  39 W13       30.05R HX  81
BURLINGTON     SUNNY     80  55  42 W10       30.05S HX  80
KENOSHA        SUNNY     81  61  50 W9        30.05R HX  82
FOND DU LAC    SUNNY     81  59  47 W14       30.01R HX  81
SHEBOYGAN      SUNNY     81  59  47 NW15G22   29.99R HX  81
WEST BEND      SUNNY     79  55  44 W10G22    30.02S
JUNEAU         SUNNY     77  60  56 W12       30.04S
$$

LSZ147-162-301700-
LAKE SUPERIOR

STATION/POSITION TIME  TEMP    WIND        PRES    WAVE
                       AIR SEA DIR/SP/G            HT/PER
                 (UTC) (F)     (DEG/KT/KT) (MB)    (FT/S)
W MID LAKE BUOY  1550   57 53  240/ 12/ 14 1011.8R   3/ 6
DEVILS ISLAND    1600   64     240/ 16/ 19 1013.2R
PORT WING        1500   70     250/ 13/ 15 1014.2R
SAXON HARBOR     1500   74                 1013.2
$$

LMZ867-665-643>646-301700-
LAKE MICHIGAN

STATION/POSITION TIME  TEMP    WIND        PRES    WAVE
                       AIR SEA DIR/SP/G            HT/PER
                 (UTC) (F)     (DEG/KT/KT) (MB)    (FT/S)
CHAMBERS ISLAND  1500   75     240/  5/ 13 1012.2S
S GREEN BAY BUOY 1600   68 66  250/ 10/ 12 1014.8
N MID LAKE BUOY  1550   70 68  250/ 16/ 17 1010.8R   3/ 4
NORTHPORT PIER   1500   74     280/  8/ 16 1011.5S
SISTER BAY       1414   75     300/ 19/ 22   N/A
ALGOMA LAKESHORE 1512          260/ 10/ 18   N/A
KEWAUNEE LAKESHO 1500   77     300/ 10/ 15 1013.2
SHEBOYGAN LAKESH 1600   78     290/ 15/ 20 1015.3R
PORT WASHINGTON  1500   80     290/ 12/ 17 1016.3S
ATWATER BUOY     1600   74 59  280/ 14/ 17 1017.7R
MILWAUKEE LAKESH 1500   78     300/ 11/ 15   N/A
KENOSHA   LAKESH 1600   80     280/ 11/ 16 1016.6S
$$

TC  - TEMPERATURE IN CELSIUS
VSB - VISIBILITY IN STATUTE MILES
WCI - WIND CHILL INDEX
HX  - HEAT INDEX




USA.gov is the U.S. government's official web portal to all federal, state and local government web resources and services.